Tracking 27107 objects as of 21-Mar-2023
HD Live streaming from Space Station
objects crossing your sky now

GEOSAT

Track GEOSAT now!
10-day predictions
GEOSAT is classified as:


NORAD ID: 15595
Int'l Code: 1985-021A
Perigee: 768.7 km
Apogee: 772.4 km
Inclination: 108.1 °
Period: 100.1 minutes
Semi major axis: 7141 km
RCS: 9.5926 m2 (large)
Launch date: March 13, 1985
Source: United States (US)
Launch site: AIR FORCE WESTERN TEST RANGE (AFWTR)
Your satellite tracking list
Your tracking list is empty




NASA's NSSDC Master Catalog

Two Line Element Set (TLE):
1 15595U 85021A   23080.10001263  .00000313  00000-0  14656-3 0  9999
2 15595 108.0535 138.6661 0002597 275.4477  84.6368 14.38511224992702
Source of the keplerian elements: AFSPC